Tracking 23731 objects as of 26-Sep-2021
HD Live streaming from Space Station
objects crossing your sky now

STARLINK-1414

Track STARLINK-1414 now!
10-day predictions
STARLINK-1414 is classified as:


NORAD ID: 45690
Int'l Code: 2020-035AK
Perigee: 555.3 km
Apogee: 558.3 km
Inclination: 53.0 °
Period: 95.6 minutes
Semi major axis: 6927 km
RCS: Unknown
Launch date: June 4, 2020
Source: United States (US)
Launch site: AIR FORCE EASTERN TEST RANGE (AFETR)
aabbcc
Your satellite tracking list
Your tracking list is empty




NASA's NSSDC Master Catalog

Two Line Element Set (TLE):
1 45690U 20035AK  21268.95875479  .00001422  00000-0  11669-3 0  9992
2 45690  53.0008 154.8055 0002201  76.0454 284.0779 15.05598243 73404
Source of the keplerian elements: AFSPC